Location: ????????
(55.6333°N, 37.7000°E)
Time: 07:42:38
(UTC+00:00)

NOSS 3-2 (A) - Pass Details

Date: 19 May 2025
Orbit: 674 x 1530 km, 63.4° (Epoch: 29 May)

Event Time Altitude Azimuth Distance (km) Brightness Sun altitude
Rises 22:04:25 0° 309° (NW) 3,761 7.0 -13.9°
Reaches altitude 10° 22:06:51 10° 307° (NW) 2,920 6.3 -13.9°
Maximum altitude 22:13:49 64° 228° (SW) 1,368 4.0 -13.7°
Drops below altitude 10° 22:22:16 10° 150° (SSE) 3,506 6.0 -13.4°
Sets 22:25:26 0° 148° (SSE) 4,559 6.6 -13.3°
